Flag for Micronesia Weather past 2 weeks in Kolonia, Pohnpei, Micronesia

Now
81 °F

Sprinkles. Mostly cloudy.


Feels Like: 89 °F
Forecast: 80 / 86 °F
Wind: 6 mph from West

Location: Pohnpei

Current Time: Jul 1, 2015 at 4:15:27 PM

Latest Report: Jul 1, 2015 at 2:53 PM


Visibility: 12 mi

Pressure: 29.72 "Hg

Humidity: 92%

Dew point: 78 °F

Location of KoloniaLocation

Historic Weather in Kolonia — Graph

°F

Kolonia temperature yesterday

Maximum temperature yesterday: 84 °F (at 2:54 PM)
Minimum temperature yesterday: 76 °F (at 7:50 AM)
Average temperature yesterday: 79 °F

Past Weeks' High & Low Weather Summary

 TemperatureHumidityPressure
High89 °F (Jun 20, 11:50 AM)100% (Jun 20, 6:52 AM)29.90 "Hg (Jun 20, 6:52 AM)
Low75 °F (Jun 28, 5:53 AM)67% (Jun 20, 12:51 PM)29.72 "Hg (Jul 1, 2:53 PM)
Average81 °F87%29.82 "Hg
* Reported Jun 16 2:50 PM — Jul 1 2:53 PM, Kolonia, Weather by CustomWeather, © 2015

Note: Actual official high and low records may vary slightly from our data, if they occured in-between our weather recording intervals... More about our weather records

Advertising

Kolonia weather history for previous 24 hours

 ConditionsComfort  
Time TempWeatherWind HumidityBarometerVisibility
2:53 PM
Wed, Jul 1
81 °FSprinkles. Mostly cloudy.6 mph92%29.72 "Hg12 mi
1:52 PM80 °FSprinkles. Mostly cloudy.9 mph92%29.74 "Hg12 mi
12:50 PM85 °FMostly cloudy.7 mph81%29.75 "Hg15 mi
11:54 AM85 °FMostly cloudy.7 mph77%29.76 "Hg15 mi
10:54 AM83 °FMostly cloudy.7 mph82%29.78 "Hg15 mi
9:50 AM84 °FMostly cloudy.6 mph84%29.79 "Hg15 mi
8:54 AM84 °FSprinkles. Mostly cloudy.7 mph80%29.79 "Hg12 mi
7:55 AM80 °FMostly cloudy.7 mph88%29.77 "Hg15 mi
6:50 AM78 °FMostly cloudy.5 mph95%29.76 "Hg15 mi
2:50 AM81 °FMostly cloudy.7 mph83%29.74 "Hg15 mi
1:53 AM78 °FSprinkles. Mostly cloudy.7 mph95%29.77 "Hg12 mi
12:50 AM78 °FSprinkles. Mostly cloudy.9 mph96%29.79 "Hg12 mi
11:54 PM
Tue, Jun 30
80 °FMostly cloudy.8 mph86%29.82 "Hg15 mi
10:53 PM79 °FMostly cloudy.8 mph91%29.83 "Hg15 mi
9:53 PM79 °FMostly cloudy.5 mph92%29.80 "Hg15 mi
8:54 PM78 °FSprinkles. Mostly cloudy.8 mph91%29.82 "Hg10 mi
7:53 PM76 °FMostly cloudy.6 mph92%29.80 "Hg15 mi
6:53 PM76 °FLight rain. Mostly cloudy.7 mph91%29.82 "Hg12 mi
5:51 PM77 °FSprinkles. Mostly cloudy.9 mph94%29.80 "Hg12 mi
4:54 PM80 °FMostly cloudy.12 mph83%29.78 "Hg15 mi
Weather by CustomWeather, © 2015

See weather overviewHow to use our weather pages